Tracking 19969 objects as of 12-Nov-2019
Live streaming from Space Station
objects crossing your sky now
Track the group of recently launched Starlink satellites

THORAD DELTA 1 DEB

Track THORAD DELTA 1 DEB now!
10-day predictions


NORAD ID: 8311
Int'l Code: 1974-089BU
Perigee: 1,462.4 km
Apogee: 1,519.1 km
Inclination: 101.8 °
Period: 115.6 minutes
Semi major axis: 7861 km
RCS: 2.7637 m2 (large)
Launch date: November 15, 1974
Source: United States (US)
Launch site: AIR FORCE WESTERN TEST RANGE (AFWTR)

Note: This is SATELLITE DEBRIS
aabbcc
Your satellite tracking list
Your tracking list is empty




NASA's NSSDC Master Catalog

Two Line Element Set (TLE):
1  8311U 74089BU  19316.84923771 -.00000036  00000-0  59662-4 0  9994
2  8311 101.8005 268.5750 0036050 217.9341 167.2830 12.45452002 45601
Source of the keplerian elements: AFSPC